[[{"header":{"parameterUnit":"m.s-1","parameterCategory":1,"la1":30.2991,"la2":30.254,"lo1":-89.0895,"lo2":-89.0444,"dy":0.0017,"dx":0.0017,"nx":28,"ny":28,"refTime":"2025-04-27T03:00:00:Z","depth":0,"parameterNumber":2,"parameterNumberName":"U-component_of_WINDS"},"data":[0,0,0,0,0,0,0,0,0,0,0,0,0,0,0,0,0,0,0,0,0,0,0,0,0,0,0,0,0,0,0,0,0,0,0,0,0,0,0,0,0,0,0,0,0,0,0,0,0,0,0,0,0,0,0,0,0,0,0.046,0.0461,0,0.0503,0.0503,0.0504,0.0486,0.0485,0.0484,0.0483,0.0529,0.0531,0.0533,0,0,0,0,0,0,0,0,0,0,0,0,0,0.0366,0.0368,0.046,0.0461,0.0461,0.0502,0.0503,0.0504,0.0486,0.0485,0.0484,0.0483,0.0528,0.0531,0.0533,0,0,0,0,0,0,0,0,0,0,0,0,0,0.0407,0.0368,0.046,0.0457,0.0458,0.0502,0.0503,0.0504,0.0487,0.0485,0.0484,0.0482,0.0527,0.053,0.0534,0.0584,0,0,0.0543,0.0545,0,0,0,0,0,0,0,0,0.0405,0.0411,0.0457,0.0458,0.0458,0.0487,0.0487,0.0531,0.0487,0.0476,0.0483,0.0481,0.0516,0.052,0.0532,0.0586,0.0588,0.0544,0.0546,0.0547,0.0548,0,0,0,0,0,0,0,0.0402,0.0409,0.0477,0.0458,0.0458,0.0455,0.0459,0.0495,0.0504,0.0477,0.0475,0.0481,0.0516,0.0529,0.0533,0.0589,0.0544,0.0547,0.0549,0.055,0.0687,0.0689,0,0,0,0,0,0,0.0399,0.0407,0.0476,0.0478,0.0427,0.0458,0.0462,0.048,0.0504,0.0506,0.0482,0.048,0.0524,0.0529,0.0534,0.0596,0.0547,0.055,0.0552,0.0685,0.0687,0.0689,0,0,0,0,0,0,0.0397,0.0405,0.0474,0.0442,0.0451,0.0461,0.048,0.0481,0.0494,0.0508,0.0509,0.0493,0.0523,0.053,0.0572,0.0597,0.0552,0.0555,0.0683,0.0686,0.0688,0.0718,0,0,0,0,0,0,0.0394,0.0405,0.0424,0.0443,0.0452,0.051,0.0482,0.0483,0.0499,0.0497,0.0518,0.052,0.0522,0.0567,0.0575,0.06,0.0557,0.0681,0.0685,0.0688,0.0715,0.0721,0.0727,0,0,0,0,0,0.0391,0.0431,0.0425,0.0433,0.0476,0.0512,0.0517,0.0518,0.0501,0.052,0.0529,0.052,0.0592,0.0571,0.058,0.0607,0.068,0.0684,0.0687,0.0712,0.072,0.0727,0,0,0,0,0,0,0.0415,0.0433,0.0427,0.0473,0.0491,0.0509,0.0533,0.0526,0.0549,0.0546,0.0547,0.0552,0.0595,0.0605,0.0581,0.0657,0.0634,0.0639,0.065,0.0657,0.0663,0.066,0.056,0,0,0,0,0,0.0425,0.0452,0.0467,0.0507,0.0516,0.0523,0.0538,0.0537,0.0556,0.0564,0.0576,0.0595,0.0622,0.064,0.0665,0.0716,0.0721,0.0739,0.0744,0.0749,0.0755,0.0783,0.0791,0.0702,0.0702,0.0702,0,0,0.0448,0.0461,0.0478,0.0512,0.0525,0.0554,0.0529,0.056,0.0582,0.0568,0.0609,0.0618,0.064,0.0686,0.0707,0.0696,0.078,0.0754,0.0758,0.0761,0.0788,0.0796,0.0804,0.0704,0.0704,0.0704,0,0,0.0503,0.0515,0.055,0.0564,0.0585,0.0589,0.0597,0.0616,0.0622,0.0662,0.0653,0.0678,0.0725,0.0741,0.0755,0.0816,0.0808,0.0824,0.0856,0.0883,0.089,0.0896,0.0919,0.0927,0.0829,0.0829,0.0829,0,0.0529,0.057,0.0569,0.0601,0.0616,0.0605,0.064,0.0654,0.0682,0.0694,0.068,0.0738,0.0752,0.0802,0.0817,0.0829,0.0839,0.0822,0.0889,0.0895,0.0901,0.0923,0.0931,0.0831,0.0831,0.0831,0.0831,0,0.0601,0.063,0.0656,0.0683,0.0701,0.0735,0.0739,0.0758,0.0755,0.0761,0.0803,0.0818,0.0847,0.0859,0.0857,0.0909,0.0901,0.0888,0.0865,0.0912,0.0932,0.094,0.0834,0.0833,0.0833,0.0832,0,0,0.0674,0.0699,0.0709,0.0721,0.0743,0.0765,0.0799,0.0826,0.0843,0.0862,0.0891,0.093,0.0919,0.0935,0.0934,0.0958,0.1006,0.0942,0.0942,0.0954,0.1066,0.1076,0.1086,0.1001,0.1002,0.1003,0.1065,0,0.0732,0.0789,0.0789,0.0843,0.087,0.0859,0.0888,0.0905,0.0912,0.0936,0.0943,0.0972,0.0954,0.0963,0.0986,0.0995,0.1029,0.0991,0.1028,0.103,0.1024,0.1097,0.1108,0.1165,0.1072,0.1074,0.1075,0,0.0807,0.0829,0.0885,0.0903,0.0914,0.094,0.0966,0.0989,0.1008,0.1011,0.1029,0.1025,0.1059,0.1033,0.1082,0.1056,0.1071,0.1078,0.108,0.1084,0.1056,0.1104,0.1183,0.1192,0.1087,0.1086,0.1085,0,0.0856,0.0899,0.0938,0.0949,0.097,0.0989,0.0999,0.1016,0.1033,0.1055,0.1066,0.1093,0.1107,0.1128,0.1131,0.1112,0.118,0.1154,0.1184,0.1184,0.12,0.1199,0.1283,0.1208,0.1208,0.1208,0.1208,0,0.0921,0.0956,0.096,0.0985,0.1024,0.1023,0.1062,0.1071,0.1086,0.1113,0.1104,0.113,0.1132,0.1158,0.116,0.12,0.1207,0.1211,0.1211,0.1212,0.1212,0.1223,0.122,0.121,0.1209,0.1209,0.1209,0,0.0982,0.0986,0.1029,0.1045,0.105,0.1079,0.1093,0.1117,0.1122,0.1156,0.1164,0.1172,0.1202,0.1207,0.1243,0.1244,0.1293,0.1289,0.1286,0.1286,0.1316,0.1314,0.1412,0.1425,0.134,0.134,0.1341,0,0.1024,0.1051,0.107,0.1087,0.1098,0.1125,0.1142,0.1142,0.116,0.1184,0.1205,0.1234,0.1257,0.1306,0.1316,0.1343,0.134,0.1373,0.1345,0.1345,0.1342,0.1341,0.1344,0.1379,0.138,0.138,0.1381,0,0.1099,0.1099,0.1123,0.1149,0.1169,0.1189,0.1208,0.1222,0.1225,0.1245,0.1276,0.1294,0.133,0.1359,0.1386,0.1397,0.139,0.1389,0.1398,0.14,0.1398,0.14,0.1302,0.1388,0.1387,0.1386,0.1386,0.1386,0.1152,0.1176,0.1193,0.1221,0.1234,0.1252,0.1275,0.1283,0.1308,0.1337,0.1336,0.137,0.1388,0.1424,0.1436,0.1463,0.1453,0.1465,0.1468,0.1472,0.1475,0.1393,0.1468,0.1468,0.1468,0.1467,0.1467,0,0.1227,0.1238,0.1263,0.1289,0.1311,0.1301,0.1321,0.134,0.137,0.1387,0.141,0.1446,0.1474,0.1486,0.1514,0.1533,0.1531,0.1541,0.154,0.1543,0.1482,0.1472,0.1542,0.1542,0.1542,0.1542,0.1542,0.1542,0.1269,0.1308,0.1311,0.1357,0.1368,0.14,0.1413,0.1429,0.1443,0.1483,0.1506,0.1513,0.1529,0.1558,0.1584,0.1587,0.1598,0.161,0.1611,0.1555,0.1547,0.154,0.1531,0.1612,0.1612,0.167,0.167,0.1671]},{"header":{"parameterUnit":"m.s-1","parameterCategory":1,"la1":30.2991,"la2":30.254,"lo1":-89.0895,"lo2":-89.0444,"dy":0.0017,"dx":0.0017,"nx":28,"ny":28,"refTime":"2025-04-27T03:00:00:Z","depth":0,"parameterNumber":3,"parameterNumberName":"V-component_of_WINDS"},"data":[0,0,0,0,0,0,0,0,0,0,0,0,0,0,0,0,0,0,0,0,0,0,0,0,0,0,0,0,0,0,0,0,0,0,0,0,0,0,0,0,0,0,0,0,0,0,0,0,0,0,0,0,0,0,0,0,0,0,0.5469,0.5469,0,0.5526,0.5526,0.5527,0.5538,0.5538,0.5537,0.5537,0.5598,0.56,0.5602,0,0,0,0,0,0,0,0,0,0,0,0,0,0.5372,0.5374,0.5469,0.5469,0.547,0.5526,0.5526,0.5527,0.5538,0.5538,0.5537,0.5537,0.5597,0.56,0.5602,0,0,0,0,0,0,0,0,0,0,0,0,0,0.542,0.5374,0.5468,0.5482,0.5484,0.5525,0.5526,0.5527,0.5538,0.5538,0.5537,0.5536,0.5597,0.56,0.5603,0.5635,0,0,0.5612,0.5613,0,0,0,0,0,0,0,0,0.5417,0.5424,0.5479,0.5481,0.5483,0.5524,0.5515,0.5564,0.5538,0.5518,0.5537,0.5536,0.5574,0.5579,0.5591,0.5638,0.5641,0.5612,0.5614,0.5616,0.5616,0,0,0,0,0,0,0,0.5414,0.5421,0.5491,0.548,0.5483,0.5486,0.5492,0.5524,0.5549,0.5519,0.552,0.5527,0.5575,0.5588,0.5593,0.5642,0.5612,0.5615,0.5617,0.5618,0.5719,0.572,0,0,0,0,0,0,0.5408,0.5418,0.5489,0.5493,0.5448,0.5489,0.5495,0.5512,0.5549,0.5554,0.5527,0.5527,0.5583,0.5589,0.5595,0.5637,0.5615,0.5618,0.562,0.5719,0.572,0.572,0,0,0,0,0,0,0.5406,0.5414,0.5487,0.5456,0.5465,0.5491,0.5509,0.5513,0.5526,0.5555,0.556,0.5536,0.5583,0.5591,0.5625,0.5639,0.562,0.5623,0.5718,0.5719,0.572,0.5719,0,0,0,0,0,0,0.5403,0.5413,0.5425,0.5456,0.5467,0.5516,0.551,0.5515,0.5531,0.5532,0.5564,0.5569,0.5583,0.5621,0.5628,0.5643,0.5625,0.5716,0.5718,0.572,0.5718,0.572,0.5722,0,0,0,0,0,0.5399,0.5423,0.5426,0.5434,0.5483,0.5516,0.5523,0.5538,0.5532,0.5545,0.5564,0.5568,0.5636,0.5624,0.5633,0.5648,0.5716,0.5718,0.5719,0.5717,0.572,0.5722,0,0,0,0,0,0,0.5394,0.5428,0.5431,0.5465,0.5488,0.5518,0.5535,0.554,0.5565,0.5564,0.5583,0.559,0.5624,0.5639,0.5626,0.5682,0.5676,0.5679,0.5671,0.5674,0.5676,0.5672,0.5628,0,0,0,0,0,0.5397,0.5421,0.5449,0.5477,0.5488,0.5509,0.5524,0.5534,0.5558,0.5568,0.5589,0.5613,0.564,0.5658,0.5684,0.572,0.5728,0.5735,0.5737,0.5739,0.5742,0.5764,0.5767,0.5727,0.5727,0.5727,0,0,0.5404,0.5424,0.5439,0.5476,0.5495,0.552,0.5517,0.5544,0.5563,0.5573,0.5606,0.5622,0.5651,0.5687,0.5704,0.5701,0.5755,0.5741,0.5742,0.5745,0.5766,0.577,0.5773,0.5728,0.5728,0.5727,0,0,0.5428,0.5446,0.5471,0.549,0.5517,0.5531,0.5537,0.5567,0.5578,0.5612,0.562,0.5643,0.5689,0.5709,0.5725,0.5757,0.5763,0.5765,0.5776,0.5797,0.58,0.5803,0.5815,0.5819,0.5768,0.5768,0.5768,0,0.5433,0.547,0.5484,0.551,0.5527,0.5535,0.5562,0.5579,0.5615,0.5627,0.5623,0.5681,0.57,0.5741,0.5749,0.5761,0.577,0.5762,0.5798,0.5801,0.5804,0.5816,0.5821,0.5768,0.5768,0.5768,0.5768,0,0.5475,0.55,0.5518,0.5551,0.5569,0.5595,0.5614,0.5632,0.5639,0.5654,0.5689,0.5713,0.5744,0.5755,0.5763,0.5797,0.5795,0.5794,0.5788,0.5808,0.582,0.5824,0.5769,0.5769,0.5769,0.5769,0,0,0.5499,0.5538,0.5545,0.556,0.5591,0.5612,0.5639,0.5668,0.5684,0.5707,0.5731,0.577,0.5769,0.5788,0.5798,0.5816,0.5841,0.5814,0.5815,0.5819,0.5882,0.5883,0.5888,0.5844,0.5845,0.5846,0.588,0,0.5528,0.5575,0.5588,0.5629,0.5653,0.5662,0.5685,0.5708,0.5722,0.5746,0.5762,0.5789,0.5786,0.5798,0.5815,0.5834,0.5854,0.5832,0.5868,0.5869,0.5862,0.5894,0.5895,0.5925,0.5884,0.5885,0.5885,0,0.5568,0.5592,0.5635,0.5663,0.5674,0.5694,0.5723,0.5745,0.5771,0.578,0.5801,0.5809,0.5839,0.583,0.5872,0.5856,0.5872,0.5883,0.5885,0.589,0.5879,0.5901,0.5935,0.594,0.5893,0.5892,0.5891,0,0.5583,0.5626,0.5657,0.5669,0.5703,0.5717,0.5732,0.5757,0.5774,0.5799,0.5811,0.584,0.5856,0.5878,0.5895,0.5887,0.5936,0.5928,0.5945,0.5945,0.5956,0.5956,0.5995,0.5964,0.5964,0.5964,0.5964,0,0.5615,0.5641,0.5664,0.5683,0.5713,0.5728,0.5757,0.5772,0.5794,0.5818,0.5827,0.5849,0.5869,0.5894,0.5907,0.594,0.5947,0.5956,0.596,0.5956,0.5955,0.5968,0.5966,0.5965,0.5965,0.5965,0.5964,0,0.5637,0.5653,0.5687,0.5716,0.5723,0.5744,0.5769,0.5789,0.5803,0.5833,0.584,0.5863,0.5893,0.5912,0.595,0.5959,0.5995,0.5998,0.5987,0.5988,0.6005,0.6004,0.6055,0.6063,0.6026,0.6026,0.6026,0,0.5656,0.5677,0.5707,0.5722,0.5737,0.5762,0.5779,0.5795,0.5813,0.5844,0.586,0.589,0.5915,0.5962,0.5983,0.6013,0.6016,0.6032,0.6021,0.6017,0.6018,0.6017,0.602,0.6035,0.6035,0.6035,0.6035,0,0.569,0.5697,0.5721,0.5748,0.5768,0.5791,0.5813,0.5826,0.5845,0.5865,0.5895,0.5914,0.5953,0.5983,0.6014,0.6031,0.6037,0.6038,0.6044,0.6042,0.6035,0.604,0.5993,0.6038,0.6037,0.6037,0.6037,0.6037,0.5713,0.5731,0.5755,0.5782,0.58,0.5821,0.5841,0.5857,0.5882,0.5914,0.5921,0.5953,0.5979,0.6021,0.6038,0.6064,0.6062,0.607,0.6072,0.6075,0.6076,0.6029,0.607,0.607,0.607,0.607,0.607,0,0.5748,0.5764,0.5788,0.5818,0.584,0.5842,0.5867,0.5885,0.5912,0.5935,0.5959,0.5994,0.6023,0.6046,0.6077,0.6093,0.6097,0.6101,0.61,0.6104,0.6075,0.6068,0.6097,0.6097,0.6097,0.6097,0.6097,0.6097,0.5769,0.5801,0.581,0.5851,0.5867,0.5897,0.5912,0.5931,0.5949,0.5987,0.6011,0.6026,0.6049,0.6081,0.6108,0.6114,0.6126,0.613,0.6136,0.6109,0.6106,0.6103,0.6096,0.6131,0.6132,0.6164,0.6164,0.6164]}]]